Change the Weather History Date:

Thursday, November 3, 2011

  Actual Average Record
Temperature  
Mean Temperature 39 °F 46 °F  
Max Temperature 52 °F 58 °F 79 °F (2008)
Min Temperature 25 °F 34 °F 1 °F (1991)
Degree Days  
Heating Degree Days 26 19  
Month to date heating degree days 59 57  
Since 1 July heating degree days 537 536  
Cooling Degree Days 0 0  
Month to date cooling degree days 0 0  
Year to date cooling degree days 1296 1173  
Moisture  
Dew Point 24 °F    
Average Humidity 57    
Maximum Humidity 84    
Minimum Humidity 30    
Precipitation  
Precipitation 0.00 in 0.06 in 2.05 in (2003)
Month to date precipitation 0.66 0.17  
Year to date precipitation 26.59 26.74  
Snow  
Snow 0.00 in 0.00 in - ()
Month to date snowfall T 0.1  
Since 1 July snowfall T 0.8  
Snow Depth 0.00 in    
Sea Level Pressure  
Sea Level Pressure 30.33 in    
Wind  
Wind Speed 7 mph (North)    
Max Wind Speed 18 mph    
Max Gust Speed 24 mph    
Visibility 10 miles    
Events      
T = Trace of Precipitation, MM = Missing Value Source: NWS Daily Summary

Daily Weather History Graph

Daily Weather History Graph

Search for Another Location

Airport or City:

Trip Planner

Search our weather history database for the weather conditions in past years. The results will help you decide how hot, cold, wet, or windy it might be!

Date:

Astronomy

Nov. 03, 2011 Rise Set
Actual Time 7:59 AM CDT 6:20 PM CDT
Civil Twilight 7:31 AM CDT 6:49 PM CDT
Nautical Twilight 6:58 AM CDT 7:22 PM CDT
Astronomical Twilight 6:26 AM CDT 7:54 PM CDT
Moon 2:47 PM CDT (11/3) 1:10 AM CDT (11/3)
Length of Visible Light 11h 18m
Length of Day
10h 21m
First Quarter, 60% of the Moon is Illuminated
Nov 3
First Quarter
Nov 10
Full
Nov 18
Last Quarter
Nov 25
New
Dec 2
First Quarter

Hourly Weather History & Observations

Time (CDT) Temp. Windchill Dew Point Humidity Pressure Visibility Wind Dir Wind Speed Gust Speed Precip Events Conditions
12:54 AM 37.9 °F 28.9 °F 27.0 °F 65% 30.31 in 10.0 mi NNW 16.1 mph - N/A   Clear
1:54 AM 36.0 °F 26.7 °F 26.1 °F 67% 30.32 in 10.0 mi NNW 15.0 mph - N/A   Clear
2:54 AM 35.1 °F 25.9 °F 25.0 °F 67% 30.31 in 10.0 mi NNW 13.8 mph - N/A   Clear
3:54 AM 33.8 °F 25.3 °F 24.8 °F 70% 30.28 in 10.0 mi NNW 11.5 mph - N/A   Clear
4:54 AM 33.1 °F 24.9 °F 25.0 °F 72% 30.32 in 10.0 mi WNW 10.4 mph - N/A   Clear
5:54 AM 30.9 °F 21.7 °F 24.1 °F 76% 30.34 in 10.0 mi NNW 11.5 mph - N/A   Clear
6:54 AM 30.9 °F 22.2 °F 23.0 °F 72% 30.35 in 10.0 mi NNW 10.4 mph - N/A   Clear
7:54 AM 30.0 °F 22.4 °F 23.0 °F 75% 30.37 in 10.0 mi NNW 8.1 mph - N/A   Clear
8:54 AM 30.9 °F 23.5 °F 21.9 °F 69% 30.39 in 10.0 mi NNW 8.1 mph - N/A   Clear
9:54 AM 36.0 °F 29.0 °F 24.1 °F 62% 30.41 in 10.0 mi NNW 9.2 mph - N/A   Clear
10:54 AM 39.9 °F 32.9 °F 26.1 °F 58% 30.38 in 10.0 mi North 11.5 mph - N/A   Clear
11:54 AM 44.1 °F 37.1 °F 27.0 °F 51% 30.37 in 10.0 mi North 15.0 mph 19.6 mph N/A   Clear
12:54 PM 46.0 °F 42.5 °F 26.1 °F 46% 30.35 in 10.0 mi NNW 6.9 mph - N/A   Clear
1:54 PM 48.0 °F - 24.1 °F 39% 30.32 in 10.0 mi NNW 6.9 mph - N/A   Clear
2:54 PM 51.1 °F - 23.0 °F 33% 30.31 in 10.0 mi North 6.9 mph - N/A   Clear
3:54 PM 51.1 °F - 21.0 °F 31% 30.29 in 10.0 mi North 5.8 mph - N/A   Clear
4:54 PM 51.1 °F - 21.9 °F 32% 30.30 in 10.0 mi NE 4.6 mph - N/A   Clear
5:54 PM 46.0 °F 43.9 °F 25.0 °F 44% 30.30 in 10.0 mi ENE 4.6 mph - N/A   Clear
6:54 PM 39.9 °F 36.7 °F 23.0 °F 51% 30.30 in 10.0 mi East 4.6 mph - N/A   Clear
7:54 PM 36.0 °F - 24.1 °F 62% 30.31 in 10.0 mi Calm Calm - N/A   Clear
8:54 PM 33.8 °F - 24.8 °F 70% 30.28 in 10.0 mi Calm Calm - N/A   Clear
9:54 PM 26.1 °F 21.9 °F 21.9 °F 84% 30.33 in 10.0 mi North 3.5 mph - N/A   Clear
10:54 PM 27.0 °F - 23.0 °F 85% 30.32 in 10.0 mi Calm Calm - N/A   Clear
11:54 PM 26.1 °F - 21.9 °F 84% 30.31 in 10.0 mi Calm Calm - N/A   Clear